CHUANG XIN 1-03

Satellite information

Favourite Embed

Satellite Type and Status

PAYLOADIN ORBIT

Key statistics

Satellite CHUANG XIN 1-03 at a glance.

Uptime

5032

Days in orbit

Revolutions

≈ 14.3

Per day

Orbit

SSO

Sun Synchronous Orbit

Inclination

98.7

Latest

Satellite identification and parameters

Extended collection of information and parameters for CHUANG XIN 1-03.

Object identification

Identified? True

Debris? False

Object name: CHUANG XIN 1-03

International designator: 2011-068A

Object number (NORAD): 37930

Object ID (CCSDS): 37930

Country: PEOPLES REPUBLIC OF CHINA (PRC)

Current information (Y/N): Y

RCS size: MEDIUM

Orbital parameters

Period: 100.668 minutes

Inclination: 98.7147 deg

SMA: 7168.389 km

Apoapsis: 800.195 km

Periapsis: 780.314 km

RAAN: 254.2741 deg

Eccentricy: 0.0013867

Argument of periapsis: 248.6783 deg

Mean anomaly: 170.5066 deg

Mean motion: 14.3044239 rev/day

Mean motion (dot): 0.00000107 rev/day2

B* drag term: 0.000058234805 1/REarth

Two-line elements (TLE)

Creation date: Aug. 30, 2025, 3:38 a.m.

Reference frame: TEME

Reference center: EARTH

Epoch: Aug. 29, 2025, 11:43 p.m. UTC

TLE line 0: 0 CHUANG XIN 1-03

TLE line 1: 1 37930U 11068A 25241.98872538 .00000107 00000-0 58235-4 0 9997

TLE line 2: 2 37930 98.7147 254.2741 0013867 248.6783 170.5066 14.30442390719022

Live tracking on map

Real-time ground track for satellite CHUANG XIN 1-03.

In-orbit conjunctions

There are no conjunctions computed for CHUANG XIN 1-03, at the moment. Check back to stay up to date, as we update our databases every day.

Go to all conjunctions

Associated space launch

CHUANG XIN 1-03 was lifted into orbit during the mission ‘Long March 2D | Shiyan Weixing 4 & Chuang Xin 1C’, on board a Long March 2D space rocket.

The launch took place on Nov. 20, 2011, 12:15 a.m. from Launch Area 4 (SLS-2 / 603).

For more information about the launch, click the button.

Launch to space Long March 2D | Shiyan Weixing 4 & Chuang Xin 1C
Long March 2D | Shiyan Weixing 4 & Chuang Xin 1C

Agency: N/A

Status: Launch Successful

Launch date: Nov. 20, 2011, 12:15 a.m. UTC

Rocket: Long March 2D

Launch pad: Launch Area 4 (SLS-2 / 603)

Location: Jiuquan Satellite Launch Center, People's Republic of China

...

Latest news about this satellite

There are no fresh news available about this satellite. Check back as we update our databases every day.


Newsletter sign-up

Weekly statistics, charts and insights to help you stay on top of the space industry.